Simultaneous Nadir Overpasses (SNOs) Predictions

Prediction of SNOs between AQUA and METOP-C Satellite Orbit:

Table of predicted SNOs for the next 14.0 days since TLE Epoch: 6/4/2022
Index Date (AQUA) Time (AQUA) Lat,Lon (AQUA) SZA (AQUA ) Date (METOP-C) Time (METOP-C) Lat,Lon (METOP-C) SZA (METOP-C ) Distance(km) Time Diff (sec)
1 06/04/2022 21:31:27 -73.90, 31.77 128.63 06/04/2022 21:30:43 -73.90, 31.86 128.63 2.78 44
2 06/04/2022 22:20:55 73.95,-160.71 51.42 06/04/2022 22:21:21 73.97,-160.65 51.44 2.35 26
3 06/07/2022 16:15:41 73.59, -68.62 50.76 06/07/2022 16:14:31 73.55, -69.90 50.77 40.64 70
4 06/07/2022 17:05:13 -73.94, 98.26 128.88 06/07/2022 17:05:06 -73.92, 98.30 128.89 2.16 7
5 06/07/2022 17:54:41 73.99, -94.21 51.18 06/07/2022 17:55:44 73.98, -94.23 51.16 1.46 63
6 06/10/2022 11:49:32 73.91, -2.73 50.86 06/10/2022 11:48:47 73.90, -2.67 50.87 2.10 45
7 06/10/2022 12:38:58 -73.94, 164.84 129.11 06/10/2022 12:39:29 -73.93, 164.73 129.11 3.26 31
8 06/13/2022 06:33:47 -73.82,-103.60 129.41 06/13/2022 06:32:34 -73.72,-104.05 129.49 18.20 73
9 06/13/2022 07:23:16 73.93, 63.79 50.71 06/13/2022 07:23:08 73.95, 63.85 50.73 3.13 8
10 06/13/2022 08:12:43 -74.01,-128.75 129.21 06/13/2022 08:13:50 -73.99,-128.73 129.24 2.09 67
11 06/16/2022 02:07:33 -73.91, -37.22 129.44 06/16/2022 02:06:53 -73.92, -37.17 129.43 1.70 40
12 06/16/2022 02:57:01 73.97, 130.28 50.63 06/16/2022 02:57:31 73.95, 130.24 50.61 2.73 30



Historial Predications of SNOs between AQUA and METOP-C
